Oconto, WI

1:31 AM CST on January 22, 2017 (GMT -0600)
Oconto Municipal

Weather History for KOCQ - August, 2013

Change the Weather History Date:

Sunday, August 11, 2013

  Actual Average Record
Temperature  
Mean Temperature 62 °F -  
Max Temperature 73 °F 77 °F 86 °F (2016)
Min Temperature 50 °F 52 °F 50 °F (2013)
Degree Days  
Heating Degree Days 4    
Growing Degree Days 12 (Base 50)    
Moisture  
Dew Point 55 °F    
Average Humidity 80    
Maximum Humidity 97    
Minimum Humidity 54    
Precipitation  
Precipitation 0.00 in - - ()
Sea Level Pressure  
Sea Level Pressure 30.07 in    
Wind  
Wind Speed 2 mph (SSW)    
Max Wind Speed 9 mph    
Max Gust Speed -    
Visibility 10 miles    
Events      
Averages and records for this station are not official NWS values.
T = Trace of Precipitation, MM = Missing Value Source: NWS Daily Summary

Daily Weather History Graph

Daily Weather History Graph

Search for Another Location

Airport or City:

Trip Planner

Search our weather history database for the weather conditions in past years. The results will help you decide how hot, cold, wet, or windy it might be!

Date:

Astronomy

Aug. 11, 2013 Rise Set
Actual Time 5:49 AM CDT 8:03 PM CDT
Civil Twilight 5:16 AM CDT 8:35 PM CDT
Nautical Twilight 4:36 AM CDT 9:15 PM CDT
Astronomical Twilight 3:52 AM CDT 9:59 PM CDT
Moon 10:52 AM CDT (8/11) 10:02 PM CDT (8/11)
Length of Visible Light 15h 18m
Length of Day
14h 14m
Waxing Crescent, 22% of the Moon is Illuminated
Aug 11
Waxing Crescent
Aug 14
First Quarter
Aug 20
Full
Aug 28
Last Quarter
Sep 5
New

Hourly Weather History & Observations

Time (CDT) Temp. Dew Point Humidity Pressure Visibility Wind Dir Wind Speed Gust Speed Precip Events Conditions
12:15 AM 52.3 °F 50.7 °F 94% 30.10 in 10.0 mi Calm Calm - N/A   Clear
12:35 AM 51.8 °F 50.2 °F 94% 30.10 in 10.0 mi Calm Calm - N/A   Clear
12:55 AM 52.5 °F 50.9 °F 94% 30.10 in 10.0 mi Calm Calm - N/A   Clear
1:15 AM 51.6 °F 50.2 °F 95% 30.11 in 10.0 mi Calm Calm - N/A   Clear
1:35 AM 51.3 °F 49.6 °F 94% 30.11 in 10.0 mi Calm Calm - N/A   Clear
1:55 AM 51.6 °F 49.8 °F 94% 30.11 in 10.0 mi Calm Calm - N/A   Clear
2:15 AM 50.9 °F 49.1 °F 94% 30.11 in 10.0 mi Calm Calm - N/A   Clear
2:35 AM 50.2 °F 48.6 °F 94% 30.11 in 10.0 mi Calm Calm - N/A   Clear
2:55 AM 50.2 °F 48.6 °F 94% 30.11 in 10.0 mi Calm Calm - N/A   Clear
3:15 AM 50.4 °F 49.1 °F 95% 30.11 in 10.0 mi Calm Calm - N/A   Clear
3:35 AM 50.4 °F 49.1 °F 95% 30.11 in 10.0 mi Calm Calm - N/A   Clear
3:55 AM 51.3 °F 49.8 °F 95% 30.11 in 10.0 mi Calm Calm - N/A   Clear
4:15 AM 51.4 °F 50.2 °F 95% 30.11 in 10.0 mi Calm Calm - N/A   Clear
4:35 AM 52.9 °F 51.4 °F 95% 30.10 in 10.0 mi Calm Calm - N/A   Clear
4:55 AM 53.8 °F 52.5 °F 95% 30.10 in 10.0 mi Calm Calm - N/A   Clear
5:15 AM 54.1 °F 53.4 °F 97% 30.10 in 10.0 mi Calm Calm - N/A   Clear
5:35 AM 55.4 °F 54.0 °F 95% 30.11 in 10.0 mi Calm Calm - N/A   Clear
5:55 AM 55.2 °F 53.8 °F 95% 30.11 in 10.0 mi West 3.5 mph - N/A   Clear
6:15 AM 55.4 °F 54.1 °F 96% 30.11 in 10.0 mi West 4.6 mph - N/A   Clear
6:35 AM 56.1 °F 54.7 °F 95% 30.11 in 10.0 mi WSW 3.5 mph - N/A   Clear
6:55 AM 57.4 °F 55.4 °F 93% 30.10 in 10.0 mi WSW 3.5 mph - N/A   Clear
7:15 AM 57.0 °F 55.0 °F 93% 30.10 in 10.0 mi Calm Calm - N/A   Clear
7:35 AM 57.9 °F 55.9 °F 93% 30.11 in 10.0 mi West 3.5 mph - N/A   Clear
7:55 AM 59.0 °F 56.3 °F 91% 30.11 in 10.0 mi Calm Calm - N/A   Clear
8:15 AM 59.9 °F 55.8 °F 86% 30.10 in 10.0 mi Calm Calm - N/A   Clear
8:35 AM 61.3 °F 56.3 °F 83% 30.10 in 10.0 mi West 3.5 mph - N/A   Clear
8:55 AM 63.3 °F 56.1 °F 77% 30.10 in 10.0 mi Calm Calm - N/A   Clear
9:15 AM 65.3 °F 56.5 °F 73% 30.09 in 10.0 mi Calm Calm - N/A   Clear
9:35 AM 66.2 °F 56.1 °F 70% 30.10 in 10.0 mi WNW 3.5 mph - N/A   Clear
9:55 AM 66.4 °F 55.2 °F 67% 30.10 in 10.0 mi WNW 3.5 mph - N/A   Clear
10:15 AM 66.2 °F 56.8 °F 72% 30.09 in 10.0 mi Calm Calm - N/A   Clear
10:35 AM 66.4 °F 58.3 °F 75% 30.09 in 10.0 mi Calm Calm - N/A   Clear
10:55 AM 67.5 °F 57.2 °F 70% 30.09 in 10.0 mi SW 3.5 mph - N/A   Clear
11:15 AM 68.4 °F 56.8 °F 67% 30.10 in 10.0 mi WSW 3.5 mph - N/A   Clear
11:35 AM 69.4 °F 56.3 °F 63% 30.10 in 10.0 mi West 5.8 mph - N/A   Clear
11:55 AM 69.8 °F 55.4 °F 60% 30.09 in 10.0 mi West 5.8 mph - N/A   Clear
12:15 PM 70.3 °F 55.4 °F 59% 30.09 in 10.0 mi West 4.6 mph - N/A   Clear
12:35 PM 72.1 °F 57.2 °F 59% 30.08 in 10.0 mi SSW 5.8 mph - N/A   Clear
12:55 PM 71.2 °F 54.7 °F 56% 30.08 in 10.0 mi SW 3.5 mph - N/A   Scattered Clouds
1:15 PM 72.7 °F 55.2 °F 54% 30.07 in 10.0 mi SSW 4.6 mph - N/A   Scattered Clouds
1:35 PM 72.9 °F 55.2 °F 54% 30.06 in 10.0 mi South 5.8 mph - N/A   Scattered Clouds
1:55 PM 73.0 °F 58.5 °F 60% 30.06 in 10.0 mi South 6.9 mph - N/A   Scattered Clouds
2:15 PM 71.2 °F 57.7 °F 62% 30.06 in 10.0 mi SSE 6.9 mph - N/A   Scattered Clouds
2:35 PM 71.2 °F 57.7 °F 62% 30.05 in 10.0 mi SE 8.1 mph - N/A   Mostly Cloudy
2:55 PM 72.0 °F 58.3 °F 62% 30.05 in 10.0 mi SSE 9.2 mph - N/A   Mostly Cloudy
3:15 PM 73.6 °F 58.6 °F 59% 30.05 in 10.0 mi SSE 9.2 mph - N/A   Clear
3:35 PM 73.4 °F 59.2 °F 61% 30.05 in 10.0 mi South 9.2 mph - N/A   Clear
3:55 PM 72.9 °F 59.4 °F 62% 30.04 in 10.0 mi South 8.1 mph - N/A   Clear
4:15 PM 71.8 °F 59.2 °F 64% 30.04 in 10.0 mi SSE 8.1 mph - N/A   Clear
4:35 PM 72.1 °F 58.6 °F 62% 30.04 in 10.0 mi SSE 8.1 mph - N/A   Scattered Clouds
5:15 PM 71.8 °F 57.7 °F 61% 30.04 in 10.0 mi South 8.1 mph - N/A   Scattered Clouds
5:35 PM 71.2 °F 58.8 °F 65% 30.04 in 10.0 mi SSW 5.8 mph - N/A   Clear
5:55 PM 71.1 °F 59.0 °F 66% 30.03 in 10.0 mi South 6.9 mph - N/A   Clear
6:15 PM 70.7 °F 58.3 °F 65% 30.03 in 10.0 mi SSW 5.8 mph - N/A   Clear
6:35 PM 70.2 °F 58.5 °F 66% 30.03 in 10.0 mi South 4.6 mph - N/A   Clear
6:55 PM 69.8 °F 58.3 °F 67% 30.03 in 10.0 mi SSW 5.8 mph - N/A   Clear
7:15 PM 68.5 °F 58.6 °F 71% 30.02 in 10.0 mi SSW 3.5 mph - N/A   Clear
7:35 PM 67.3 °F 58.8 °F 74% 30.02 in 10.0 mi Calm Calm - N/A   Clear
7:55 PM 65.7 °F 58.6 °F 78% 30.02 in 10.0 mi SSW 4.6 mph - N/A   Clear
8:15 PM 64.4 °F 58.6 °F 82% 30.02 in 10.0 mi Calm Calm - N/A   Clear
8:35 PM 61.2 °F 58.1 °F 90% 30.02 in 10.0 mi Calm Calm - N/A   Clear
8:55 PM 60.1 °F 57.4 °F 91% 30.03 in 10.0 mi Calm Calm - N/A   Clear
9:15 PM 60.1 °F 57.9 °F 93% 30.03 in 10.0 mi Calm Calm - N/A   Clear
9:35 PM 58.5 °F 57.0 °F 95% 30.03 in 10.0 mi Calm Calm - N/A   Clear
9:55 PM 57.6 °F 55.9 °F 94% 30.03 in 10.0 mi Calm Calm - N/A   Clear
10:15 PM 56.1 °F 54.9 °F 96% 30.03 in 10.0 mi Calm Calm - N/A   Clear
10:35 PM 56.3 °F 55.0 °F 96% 30.03 in 10.0 mi Calm Calm - N/A   Clear
10:55 PM 55.0 °F 53.8 °F 96% 30.03 in 10.0 mi Calm Calm - N/A   Clear